E5175 Weather Reports


time (UTC)temp
F
wind
direction
speed
knots
gust
knots
rain 1hr
in
rain 24hr
in
rain mn
in
humidity
%
barometer
mb
20260504220519 67 0 6.1 11.3 0.00 0.00 0.00 32 1008.7
20260504215519 67 338 7.0 10.4 0.00 0.00 0.00 31 1009.0
20260504214519 67 0 7.8 13.0 0.00 0.00 0.00 31 1008.9
20260504213519 66 0 10.4 14.8 0.00 0.00 0.00 31 1008.9
20260504212518 67 45 8.7 13.9 0.00 0.00 0.00 31 1009.2
20260504211519 66 23 6.1 11.3 0.00 0.00 0.00 31 1009.0
20260504210519 67 45 7.8 12.2 0.00 0.00 0.00 31 1009.4
20260504205519 67 45 6.1 10.4 0.00 0.00 0.00 31 1009.5
20260504204519 67 338 7.8 13.0 0.00 0.00 0.00 30 1009.5
20260504203518 67 23 7.0 11.3 0.00 0.00 0.00 31 1009.5
20260504202519 67 23 6.1 12.2 0.00 0.00 0.00 31 1009.5
20260504201519 68 0 6.1 10.4 0.00 0.00 0.00 30 1009.8
20260504200519 66 45 2.6 7.8 0.00 0.00 0.00 31 1009.5
20260504195518 66 0 7.8 12.2 0.00 0.00 0.00 31 1009.8
20260504194519 67 23 6.1 18.2 0.00 0.00 0.00 31 1010.1
20260504193519 67 45 6.1 9.6 0.00 0.00 0.00 31 1009.8
20260504192518 66 23 7.0 13.9 0.00 0.00 0.00 30 1010.0
20260504191519 66 0 7.0 14.8 0.00 0.00 0.00 31 1010.0
20260504190519 66 0 9.6 14.8 0.00 0.00 0.00 30 1010.0
20260504185519 67 0 10.4 17.4 0.00 0.00 0.00 30 1010.4
20260504184519 66 0 9.6 13.9 0.00 0.00 0.00 31 1010.2
20260504183518 66 0 7.0 13.0 0.00 0.00 0.00 31 1010.4
20260504182519 65 45 7.8 12.2 0.00 0.00 0.00 32 1010.1
20260504181518 66 23 7.8 13.9 0.00 0.00 0.00 31 1010.3
20260504180519 65 45 8.7 14.8 0.00 0.00 0.00 31 1010.3
20260504175518 65 0 10.4 19.1 0.00 0.00 0.00 32 1010.1
20260504174519 66 45 9.6 17.4 0.00 0.00 0.00 31 1010.2
20260504173519 65 45 8.7 14.8 0.00 0.00 0.00 33 1009.9
20260504172518 65 45 10.4 15.6 0.00 0.00 0.00 34 1009.9
20260504171518 65 45 9.6 17.4 0.00 0.00 0.00 35 1009.8
20260504170518 65 45 9.6 14.8 0.00 0.00 0.00 34 1009.9
20260504150518 57 248 2.6 6.1 0.00 0.00 0.00 47 1009.0
20260504140518 52 270 2.6 5.2 0.00 0.00 0.00 54 1009.6
20260504130518 42 293 2.6 5.2 0.00 0.00 0.00 72 1008.6
20260504110517 35 0.0 0.0 0.00 0.00 0.00 81 1008.5
20260504100518 37 0.0 0.0 0.00 0.00 0.00 75 1009.0
20260504081517 40 315 1.7 2.6 0.00 0.00 0.00 73 1009.6
20260504080517 40 315 1.7 1.7 0.00 0.00 0.00 71 1009.8
20260504050517 45 135 0.9 2.6 0.00 0.00 0.00 57 1010.3
20260504045519 47 135 0.9 2.6 0.00 0.00 0.00 52 1010.5
20260504044518 48 0.0 0.0 0.00 0.00 0.00 52 1010.5
20260504043518 48 0.0 0.9 0.00 0.00 0.00 51 1010.6
20260504042518 49 0.0 0.9 0.00 0.00 0.00 50 1010.6
20260504041518 49 0.0 0.9 0.00 0.00 0.00 47 1010.8
20260504040517 50 135 1.7 2.6 0.00 0.00 0.00 46 1010.9
20260504035518 51 0.0 0.9 0.00 0.00 0.00 44 1010.6
20260504034518 51 135 1.7 3.5 0.00 0.00 0.00 44 1010.8
20260504033518 52 0.0 0.9 0.00 0.00 0.00 44 1010.4
20260504032517 52 135 1.7 3.5 0.00 0.00 0.00 42 1010.4
20260504031518 54 0.0 0.0 0.00 0.00 0.00 41 1010.6
20260504030525 55 0.0 0.0 0.00 0.00 0.00 40 1010.6
20260504025518 56 0.0 0.9 0.00 0.00 0.00 39 1010.9
20260504024518 58 0.0 0.9 0.00 0.00 0.00 37 1010.8
20260504023518 59 0.0 1.7 0.00 0.00 0.00 37 1011.0
20260504022518 60 0.0 0.9 0.00 0.00 0.00 36 1011.0
20260504021518 61 0.0 0.9 0.00 0.00 0.00 36 1010.9
20260504020519 62 0 0.9 2.6 0.00 0.00 0.00 34 1010.9
20260504015518 64 23 1.7 2.6 0.00 0.00 0.00 32 1011.0
20260504014518 65 23 1.7 4.3 0.00 0.00 0.00 31 1010.7
20260504013518 66 23 4.3 7.8 0.00 0.00 0.00 31 1010.6
20260504012517 67 0 7.0 10.4 0.00 0.00 0.00 30 1010.0
20260504011518 67 338 5.2 8.7 0.00 0.00 0.00 28 1010.1
20260504010518 66 0 7.0 10.4 0.00 0.00 0.00 30 1009.9
20260504005518 67 23 7.0 12.2 0.00 0.00 0.00 30 1009.3
20260504004517 67 338 9.6 13.9 0.00 0.00 0.00 31 1009.9
20260504003518 68 338 8.7 13.9 0.00 0.00 0.00 28 1009.9
20260504002519 69 315 9.6 16.5 0.00 0.00 0.00 26 1010.4
20260504001517 67 338 10.4 15.6 0.00 0.00 0.00 29 1010.0
20260504000518 67 0 13.0 20.0 0.00 0.00 0.00 31 1009.8
20260503235518 67 0 13.0 19.1 0.00 0.00 0.00 31 1009.4
20260503234519 70 0 13.9 23.5 0.00 0.00 0.00 27 1009.8
20260503233518 74 248 1.7 3.5 0.00 0.00 0.00 19 1009.9
20260503232518 75 225 1.7 6.1 0.00 0.00 0.00 18 1010.3
20260503231520 76 248 2.6 7.0 0.00 0.00 0.00 17 1010.6
20260503230519 76 225 3.5 9.6 0.00 0.00 0.00 17 1010.6
20260503225518 76 315 5.2 9.6 0.00 0.00 0.00 17 1010.3
20260503224517 75 270 5.2 10.4 0.00 0.00 0.00 18 1010.1
20260503223519 74 248 6.1 10.4 0.00 0.00 0.00 19 1010.0
20260503222519 75 225 1.7 5.2 0.00 0.00 0.00 18 1010.0
20260503221517 76 270 3.5 8.7 0.00 0.00 0.00 18 1010.4